Location: Felsheim
(48.7267°N, 10.7386°E)
Time: 23:32:13
(UTC+00:00)

MetOp-A - Pass Details

Date: 09 April 2020
Orbit: 819 x 821 km, 98.5° (Epoch: 24 May)

Event Time Altitude Azimuth Distance (km) Brightness Sun altitude
Exits shadow 19:13:30 - 161° (SSE) 2,745 6.4 -12.1°
Reaches altitude 10° 19:14:21 10° 161° (SSE) 2,413 6.2 -12.3°
Maximum altitude 19:19:42 84° 74° (ENE) 832 4.1 -13.0°
Drops below altitude 10° 19:25:06 10° 347° (NNW) 2,430 7.2 -13.8°
Sets 19:27:27 0° 347° (NNW) 3,366 8.0 -14.1°
